Location: Cheyres
(46.8153°N, 6.7877°E)
Time: 00:57:02
(UTC+00:00)

CZ-4C R/B - Pass Details

Date: 11 May 2021
Orbit: 609 x 1393 km, 63.4° (Epoch: 23 June)

Event Time Altitude Azimuth Distance (km) Brightness Sun altitude
Rises 20:27:55 0° 320° (NW) 3,800 7.6 -13.3°
Reaches altitude 10° 20:30:22 10° 320° (NW) 2,949 6.5 -13.6°
Maximum altitude 20:37:36 89° 233° (SW) 1,247 3.0 -14.5°
Enters shadow 20:43:47 20° 144° (SE) 2,665 4.1 -15.2°
